Location: Bailey Volunteer Fire Department
(33.4359°N, 96.1680°W)
Time: 16:58:35
(UTC+00:00)

Cosmos 1707 - Pass Details

Date: 13 December 2025
Orbit: 381 x 390 km, 82.5° (Epoch: 13 January)

Event Time Altitude Azimuth Distance (km) Brightness Sun altitude
Exits shadow 03:19:02 -38° 20° (NNE) 8,421 9.1 -49.4°
Enters shadow 04:24:22 -19° 254° (WSW) 5,094 8.4 -62.9°
Maximum altitude 12:40:45 47° 82° (E) 529 3.2 -8.3°
